Regional Weather Roundup
Issued by NWS Cleveland, OH

Home | Current Version | Previous Version | Graphics & Text | Print | Product List | Glossary On
Versions: 1 2 3 4 5 6 7 8 9 10 11 12 13 14 15 16 17 18 19 20 21 22 23 24 25 26 27 28 29 30 31 32 33 34 35 36 37 38 39 40 41 42 43 44 45 46 47 48 49 50
000
ASUS41 KCLE 251102
RWRCLE
OHIO REGIONAL WEATHER ROUNDUP
NATIONAL WEATHER SERVICE CLEVELAND, OH
700 AM EDT WED MAY 25 2016

NOTE: "FAIR" INDICATES FEW OR NO CLOUDS BELOW 12,000 FEET WITH NO
SIGNIFICANT WEATHER AND/OR OBSTRUCTIONS TO VISIBILITY.

OHZ001>008-015>018-024>027-034-035-043-044-251200-
   NORTHWEST OHIO

CITY           SKY/WX    TMP DP  RH WIND       PRES   REMARKS
DEFIANCE       PTCLDY    62  52  69 SW3       30.08R HAZE
FINDLAY        PTCLDY    63  49  60 S8        30.08S
TOLEDO EXPRESS PTCLDY    57  50  77 CALM      30.07R
TOLEDO EXEC    CLOUDY    62  49  62 SW6       30.08R
LIMA           CLOUDY    62  50  64 S9        30.10S
$$

OHZ009>014-019>023-028>033-038-089-251200-
   NORTHEAST OHIO

CITY           SKY/WX    TMP DP  RH WIND       PRES   REMARKS
CLE-HOPKINS    CLOUDY    61  48  62 SW5       30.12R
CLE-LAKEFRONT  CLOUDY    69  46  43 S9        30.09R
CUY CO. ARPT   PTCLDY    66  48  52 SW6       30.11
LORAIN-ELYRIA  PTCLDY    59  47  64 S5        30.11R
ASHTABULA      MOSUNNY   58  50  75 SW3       30.12R
AKRON-CANTON   MOCLDY    57  50  77 S6        30.14R
WOOSTER        CLOUDY    57  50  77 CALM      30.14R
MANSFIELD      CLOUDY    61  48  62 S6        30.13R
YOUNGSTOWN     CLOUDY    60  49  66 SW7       30.14R
$$

OHZ042-051>053-060>062-070>072-077>081-251200-
  SOUTHWEST OHIO

CITY           SKY/WX    TMP DP  RH WIND       PRES   REMARKS
CINC-COVINGTON CLOUDY    65  54  67 S5        30.11S
CINC-LUNKEN    CLOUDY    58  57  97 CALM      30.13R
HAMILTON       CLOUDY    62  55  77 CALM      30.12R
DAYTON         CLOUDY    63  49  60 S7        30.12S
WRIGHT-PAT AFB NOT AVBL
DAYTON GENERAL PTCLDY    62  49  62 S8        30.11S
WILMINGTON     PTCLDY    62  50  64 S5        30.13S
$$

OHZ036-037-039>041-045>050-054>059-063>069-073>076-082>088-251200-
  CENTRAL AND SOUTHEAST OHIO

CITY           SKY/WX    TMP DP  RH WIND       PRES   REMARKS
COLUMBUS       CLOUDY    57  52  83 CALM      30.14R
OSU AIRPORT    CLOUDY    57  52  83 CALM      30.13R
BOLTON FIELD   NOT AVBL
RICKENBACK AFB NOT AVBL
NEWARK         CLOUDY    52  49  89 CALM      30.14R
MARION         PTCLDY    57  50  77 S7        30.12S
LANCASTER      CLOUDY    54  51  90 CALM      30.15R
ZANESVILLE     CLOUDY    55  51  86 S3        30.15R
NEW PHILLY     CLEAR     55  51  86 E5        30.16R FOG
$$




USA.gov is the U.S. government's official web portal to all federal, state and local government web resources and services.